Temp
23 24 25 26 27 29 31 30 32 30 30 32 32 32 31 30 30 29 27 26 25 25 23 22 21 21 21 21 21 21 21 21 21 21 21 21 21 21 21 21 21 21 21 21 21 20 20 20 21
25 24 25 27 28 30 30 31 31 32 31 32 31 31 31 27 28 27 26 26 26 26 25 23 21 22 22 21 21 21 21 21 21 21 21 21 21 21 21 21 21 21 21 21 21 21 21 21 20
25 25 27 28 29 29 30 32 32 32 32 31 29 31 29 26 28 28 26 26 26 25 25 22 22 22 21 21 21 21 20 21 21 21 21 21 21 21 21 21 21 21 21 21 21 21 21 20 21
27 27 28 28 28 28 32 32 32 31 31 31 30 27 27 28 27 27 26 26 26 25 25 22 21 20 21 21 21 21 21 22 21 21 21 22 21 21 21 21 22 22 21 21 21 21 21 21 20
27 28 27 27 28 29 32 33 33 32 31 30 31 28 27 26 26 26 26 27 27 26 25 23 21 21 21 21 21 21 21 22 22 21 22 22 22 21 21 21 22 21 21 21 21 21 21 20 20
26 29 28 25 26 28 31 33 32 32 31 29 29 28 27 26 26 26 26 27 27 26 26 23 21 21 21 21 21 21 21 21 22 21 21 22 21 21 21 21 21 21 21 21 21 21 21 20 20
23 24 26 26 24 28 29 32 32 31 30 29 31 29 26 27 26 26 26 26 27 26 25 24 24 21 20 20 20 20 21 22 22 21 21 22 21 21 21 21 21 21 21 21 21 21 21 21 21
26 24 27 27 24 26 29 30 31 31 30 31 31 28 26 27 26 26 26 26 26 26 25 25 23 23 22 23 20 20 21 21 21 21 21 21 21 22 21 22 21 21 21 21 21 22 21 21 21
28 25 27 26 25 25 29 29 29 30 29 31 30 31 28 26 26 26 26 26 26 25 25 26 25 23 22 22 21 21 21 21 22 22 21 22 22 22 23 21 21 21 21 22 22 22 22 22 22
28 27 28 26 24 26 29 29 29 29 30 29 30 29 27 26 26 27 27 27 26 25 26 24 25 23 24 24 22 22 23 24 24 23 23 24 24 22 23 22 22 21 22 23 23 23 23 24 26
29 27 27 24 23 26 29 29 30 30 29 29 28 28 27 27 27 28 28 27 27 26 25 25 24 24 24 23 24 24 24 24 22 23 24 24 24 24 24 23 23 23 23 25 24 24 25 24 25
28 28 29 25 23 25 28 29 28 30 30 30 30 29 28 28 29 29 28 28 26 25 25 25 24 24 24 24 25 24 24 24 24 23 23 23 24 24 24 24 23 23 24 24 24 25 24 25 25
29 27 26 23 23 25 23 27 26 28 29 30 30 29 29 29 29 29 28 27 26 26 25 25 24 23 22 24 24 24 24 25 24 24 23 24 24 23 24 23 24 24 24 25 25 25 25 25 26
29 28 26 23 23 23 25 25 26 27 29 29 29 30 30 30 29 28 28 27 27 26 25 24 24 22 23 23 23 24 24 24 25 24 23 23 24 24 24 24 24 24 25 25 25 25 26 27 26
27 28 27 25 26 26 23 24 24 27 29 29 30 30 30 30 29 28 27 27 27 26 25 24 24 23 23 23 23 24 25 25 25 24 23 23 23 22 23 24 25 25 24 24 25 25 26 27 27
29 29 27 24 25 26 27 25 23 25 29 29 30 30 30 30 29 28 28 28 27 26 25 24 25 24 24 23 22 25 25 25 25 25 24 23 22 22 23 24 25 24 25 25 26 27 27 27 28
31 28 27 24 23 23 23 24 22 25 29 30 30 30 30 30 29 28 28 27 27 26 25 25 25 24 24 23 24 24 23 25 25 25 25 23 23 22 24 25 24 23 25 26 27 27 27 27 28
31 29 27 26 24 24 23 23 22 22 28 29 30 30 30 30 30 28 28 28 27 26 25 25 25 24 24 23 23 25 25 25 25 25 25 23 23 23 24 24 24 25 26 26 27 26 27 27 27
33 33 27 27 26 23 24 23 22 23 26 30 30 31 31 31 30 29 28 28 27 26 25 25 24 23 24 24 25 25 26 25 25 25 23 23 23 23 23 25 24 25 26 26 25 27 26 28 27
33 32 28 26 26 25 24 24 22 22 25 30 30 31 31 31 31 29 28 28 28 26 26 24 24 23 23 25 25 26 26 25 25 25 23 23 23 23 23 24 24 25 25 25 25 25 28 28 27
33 32 30 28 25 23 24 24 22 21 23 28 30 31 32 31 31 30 29 29 28 27 26 25 24 24 23 25 24 24 23 23 23 23 24 24 23 23 23 23 24 24 26 26 25 26 26 28 27
32 32 31 29 29 26 25 25 24 22 22 25 28 30 32 31 31 31 30 29 29 28 26 25 25 24 24 23 25 25 24 23 25 24 25 24 23 24 23 23 24 24 25 25 25 26 26 26 28
31 30 31 31 30 30 28 27 25 23 23 23 25 29 32 32 31 32 30 29 29 28 27 26 25 24 24 23 23 24 25 26 25 25 24 23 23 23 24 23 23 23 25 24 24 25 25 27 28
30 30 30 30 30 30 31 29 25 27 28 28 25 29 31 32 32 32 31 30 29 29 28 26 25 24 24 23 23 24 25 25 25 23 24 25 25 24 23 24 23 23 24 24 25 24 25 25 26
29 30 28 27 29 30 32 30 32 30 29 31 30 28 30 32 32 32 32 29 28 29 28 27 25 24 24 24 24 24 24 24 24 24 26 25 25 25 24 23 23 24 23 24 24 24 24 25 26
30 29 30 27 29 31 29 30 32 31 30 31 32 31 29 31 32 32 31 30 27 29 28 27 26 25 24 24 24 24 23 24 23 24 26 26 24 25 25 24 24 23 23 24 23 25 25 25 25
31 30 33 32 33 31 29 31 30 28 29 30 31 31 30 29 31 31 31 30 29 28 28 27 26 25 24 24 24 23 24 24 23 24 24 25 25 26 24 24 24 24 24 24 23 25 24 24 24
32 33 31 32 31 31 31 31 32 29 28 30 30 31 31 29 29 31 31 30 29 28 28 27 27 26 25 25 24 24 24 24 24 24 24 24 25 24 24 24 24 24 24 24 23 24 24 24 25
31 31 32 33 33 32 32 32 32 30 30 30 30 31 31 30 28 27 28 28 27 27 24 25 26 25 25 25 25 25 25 25 24 23 24 24 23 24 24 24 24 24 24 24 23 24 25 24 25
33 32 32 31 31 32 33 30 28 29 30 30 30 30 31 30 30 27 24 25 24 25 24 23 24 25 24 24 24 25 25 24 24 24 24 24 24 24 24 24 24 24 24 24 23 24 26 24 25
Height
790 791 790 786 797 785 786 788 776 789 790 782 784 786 794 796 801 820 819 825 829 833 837 839 840 841 841 842 843 844 845 845 846 846 847 848 848 849 850 850 851 851 852 853 853 853 853 853 854
790 791 790 784 793 794 793 778 788 782 782 782 786 790 793 812 808 814 822 827 831 833 837 840 841 842 843 843 844 845 846 847 848 848 849 850 851 852 852 853 854 855 855 856 857 856 856 856 857
790 790 788 787 786 801 794 779 780 781 782 783 794 789 798 817 815 816 824 829 831 835 837 842 843 844 844 845 846 847 848 848 850 851 852 852 852 853 854 855 857 857 858 858 858 859 859 860 860
787 786 784 794 798 793 778 776 776 783 784 785 791 807 811 813 817 821 828 831 833 837 839 843 845 845 846 846 847 848 848 850 851 852 854 854 854 856 856 858 860 860 859 861 861 862 862 862 862
785 781 794 803 798 789 771 772 775 785 788 790 788 808 815 819 822 825 829 831 834 838 843 846 846 848 848 849 850 850 851 851 853 854 855 856 857 857 860 861 862 862 863 863 864 864 865 865 864
790 781 799 818 809 791 777 773 777 783 786 796 800 806 816 822 824 827 830 833 836 840 842 847 848 850 851 851 852 853 854 854 856 858 858 859 861 864 864 864 865 866 866 866 866 866 866 867 866
799 802 805 806 814 799 788 775 781 785 795 799 794 809 821 820 825 829 832 836 838 841 844 847 849 852 852 853 854 855 856 857 858 859 862 863 864 866 867 867 867 868 868 868 868 869 869 869 868
788 797 798 800 813 806 787 785 783 787 793 792 793 812 822 819 826 830 834 839 841 843 846 848 851 853 854 855 856 857 858 859 860 863 864 866 867 868 869 868 870 870 870 870 871 870 870 870 870
781 803 796 798 806 804 786 793 791 791 797 793 796 798 814 822 827 831 836 839 843 846 847 848 851 854 855 857 859 859 861 861 862 864 866 866 868 870 871 871 871 871 871 872 872 872 872 871 872
782 790 789 791 798 799 790 791 793 796 798 801 801 808 818 824 827 830 833 837 842 846 847 852 852 856 856 858 860 861 862 863 865 867 868 868 870 871 872 872 872 873 873 873 874 874 874 872 872
778 792 785 798 798 793 789 793 789 796 804 801 806 811 819 825 827 829 832 837 841 846 849 852 855 856 857 859 860 861 863 866 868 869 869 870 871 872 873 874 875 876 875 876 876 875 875 876 874
783 781 781 796 801 799 796 791 800 794 796 797 804 811 817 823 825 828 832 837 842 847 850 852 855 857 859 860 860 862 864 866 868 870 871 872 873 874 874 875 876 876 877 877 877 876 877 876 876
780 787 789 798 804 802 806 804 806 802 798 800 809 814 818 821 826 829 833 838 842 846 850 853 856 858 860 861 862 864 866 866 869 871 873 873 873 875 875 876 877 877 878 878 878 878 877 877 877
777 782 789 800 802 804 807 811 805 808 802 805 810 813 817 821 825 831 834 838 842 846 850 854 856 859 861 863 865 866 867 869 870 872 874 875 875 876 877 877 878 879 879 879 879 879 878 877 877
780 787 790 796 795 801 809 819 821 808 805 808 811 814 817 821 826 832 835 838 841 846 850 854 857 860 862 864 866 866 867 869 871 873 875 876 876 877 878 878 879 879 880 880 880 880 879 878 877
781 783 801 804 800 799 801 824 820 812 807 810 810 814 818 822 826 831 835 838 842 845 851 855 856 860 863 865 867 867 869 870 872 873 875 876 877 878 878 879 879 880 881 881 880 879 879 878 877
774 798 800 811 804 808 816 823 823 815 807 808 810 814 817 822 827 832 836 839 843 847 851 854 857 860 863 865 867 869 870 871 872 874 875 877 877 878 879 880 881 881 882 881 880 880 879 879 877
777 790 795 804 806 806 815 817 818 820 811 808 808 812 816 820 825 831 835 839 844 848 851 855 858 861 864 866 868 869 870 872 873 874 876 877 878 879 880 881 881 881 881 881 881 881 880 879 879
758 761 796 797 795 808 806 813 818 821 815 806 808 810 813 818 823 830 834 839 843 848 851 855 858 862 864 866 867 868 869 871 873 875 877 878 879 879 880 881 882 882 882 883 883 881 881 878 878
762 768 791 800 797 804 812 813 821 823 820 805 806 808 811 815 820 827 833 837 841 846 851 856 858 862 864 866 867 868 869 872 874 875 877 879 879 879 880 881 881 881 883 885 884 882 879 878 879
762 766 778 790 807 810 816 822 825 829 824 809 805 806 806 812 816 824 829 834 838 844 849 853 858 861 864 865 867 869 871 873 874 876 877 878 879 879 880 882 882 883 882 883 884 883 881 878 880
776 767 770 785 794 818 811 832 824 829 828 821 812 807 803 810 814 819 825 830 835 840 847 852 856 861 863 865 866 868 870 871 872 874 875 876 878 879 879 881 881 883 882 884 884 884 883 880 879
779 775 777 778 786 792 803 818 825 821 831 825 819 807 801 804 811 813 820 826 831 838 844 849 855 860 862 864 866 868 868 869 870 873 874 876 877 878 879 880 881 881 882 883 884 885 884 883 881
776 783 784 783 787 801 787 802 825 807 798 803 812 804 800 799 804 810 815 823 829 835 841 846 852 858 861 863 867 868 868 869 871 873 874 874 875 876 878 880 881 882 883 883 884 885 885 885 884
784 785 811 823 812 804 778 795 779 778 784 780 789 800 797 796 802 807 812 822 828 831 837 843 849 854 859 862 864 867 869 870 872 873 871 873 874 875 877 878 880 881 882 883 885 885 885 885 885
782 788 792 822 810 788 793 794 776 767 769 772 774 787 796 793 797 803 810 817 825 828 834 840 846 851 856 860 862 866 868 869 871 870 869 871 873 874 875 878 878 880 882 883 884 885 885 885 885
774 784 763 776 764 782 793 780 771 776 774 775 774 780 789 798 796 801 806 813 820 825 831 837 843 848 853 857 860 864 866 868 870 870 871 871 872 872 876 877 878 878 880 881 882 882 884 885 886
759 757 781 777 793 794 785 782 773 778 778 773 774 775 779 792 797 799 804 812 817 823 829 835 840 845 849 853 858 860 863 866 868 870 871 871 871 872 874 876 877 878 879 881 880 881 882 884 884
772 772 762 759 763 776 783 778 752 766 768 768 769 769 776 785 796 801 805 812 818 824 830 833 838 842 846 850 854 857 860 863 866 869 870 870 871 873 872 874 877 878 878 880 880 880 881 882 882
745 761 759 776 783 769 765 779 764 763 763 766 768 769 770 779 789 800 806 812 819 824 829 833 837 841 844 847 850 854 857 860 862 865 867 869 870 871 872 873 875 876 876 878 880 880 878 879 880
Wind_Speed
5 5 3 5 3 3 8 7 14 16 16 8 11 6 10 14 8 7 22 14 18 16 14 12 10 10 9 10 10 10 10 11 11 12 12 13 14 15 16 16 18 17 18 18 18 17 17 17 16
7 3 3 3 3 6 7 10 17 13 13 18 10 9 5 8 9 16 17 20 18 16 15 13 10 9 9 9 9 10 10 10 10 11 11 11 13 14 15 16 16 17 17 18 18 18 17 16 15
7 2 3 3 1 5 8 13 15 16 21 11 6 7 5 5 16 10 21 20 18 15 14 12 10 10 11 10 9 9 10 10 10 11 11 12 13 15 15 16 16 17 17 15 15 14 14 14 14
5 4 3 1 7 6 10 15 19 21 14 6 13 10 8 9 10 15 20 19 17 15 14 13 11 12 10 11 10 9 9 9 10 12 13 14 12 16 14 13 15 16 15 13 14 13 13 14 13
4 3 0 2 10 7 10 16 17 22 10 12 5 9 14 8 15 21 19 17 16 14 13 11 11 11 11 12 11 11 10 10 11 12 14 15 14 14 15 14 15 16 15 13 13 13 13 13 13
2 4 1 3 4 4 9 14 15 17 11 11 15 19 12 12 22 19 17 15 14 14 13 11 10 10 12 12 13 12 12 12 13 13 14 16 17 15 14 15 14 15 15 17 15 14 13 12 12
3 1 2 5 5 7 9 7 12 11 13 8 15 14 9 18 20 19 16 15 13 12 12 11 11 11 13 14 13 12 13 13 14 14 15 17 15 15 14 14 13 13 14 15 13 12 12 12 13
3 3 5 6 9 6 7 7 6 10 9 12 14 8 16 23 21 20 18 15 12 10 11 8 10 9 11 12 13 13 13 14 15 17 16 15 15 14 14 15 13 13 12 11 12 12 11 12 12
2 2 5 6 14 7 10 12 5 4 12 6 4 15 25 25 22 21 18 15 12 9 9 8 11 10 11 11 11 12 14 15 16 16 18 16 14 13 12 12 11 11 10 10 10 11 11 11 12
6 3 1 4 8 8 8 10 12 10 12 12 17 25 27 24 23 20 18 17 13 11 10 9 10 10 10 10 10 12 10 12 13 13 13 13 11 10 12 9 10 10 9 8 8 8 9 8 7
1 2 10 10 7 2 12 12 8 13 12 17 22 26 24 23 20 19 17 15 14 12 9 10 9 9 9 10 10 10 12 12 12 12 12 13 11 10 10 9 8 7 6 5 6 6 5 7 7
2 1 7 8 3 4 6 11 9 5 10 14 22 25 26 20 18 17 16 15 14 12 10 10 10 9 10 10 10 11 12 12 11 12 12 12 10 9 9 9 8 7 6 4 5 6 4 5 7
3 3 9 9 9 6 2 7 4 8 11 18 22 22 20 18 17 15 15 14 14 14 12 11 11 10 9 8 10 11 12 11 11 11 11 10 8 9 9 8 7 7 5 4 5 5 6 6 7
3 8 10 10 12 11 12 8 3 8 17 22 21 19 18 17 17 14 14 15 14 14 13 13 11 10 11 11 10 11 10 10 10 11 10 9 9 9 7 6 6 6 4 4 4 6 7 7 7
6 6 13 14 15 15 12 5 7 13 19 21 19 17 16 16 16 14 14 16 16 15 15 15 14 12 12 12 10 10 10 10 11 11 10 8 7 6 5 5 6 6 4 4 4 5 5 7 8
10 7 7 9 11 12 12 13 6 10 18 19 19 17 15 15 16 15 15 16 17 16 17 15 14 14 12 10 9 9 10 10 10 9 8 6 5 5 5 6 6 5 4 4 4 5 6 6 5
8 3 9 8 8 5 3 12 12 10 18 19 18 18 15 14 15 14 16 16 16 16 17 16 14 14 12 10 9 9 8 8 8 8 8 6 6 6 7 7 5 4 4 4 4 5 3 5 4
12 11 11 6 10 16 12 8 15 13 17 18 18 19 16 15 15 16 17 16 16 16 16 16 14 13 13 10 9 9 8 8 7 7 7 6 5 5 6 6 5 5 5 5 5 3 3 3 4
8 5 17 7 9 4 5 12 21 17 15 19 18 18 18 16 17 18 16 17 17 16 16 16 14 14 14 12 11 10 10 10 8 7 6 6 6 5 6 6 4 6 5 4 4 3 3 4 4
8 9 12 8 4 9 8 11 15 14 16 17 18 18 18 17 17 17 17 17 18 18 16 15 14 14 15 13 11 9 8 9 8 7 6 6 7 5 6 5 5 4 7 5 2 3 2 3 5
4 5 11 10 8 10 7 4 13 11 12 17 17 16 18 18 17 16 19 19 18 18 17 16 15 14 14 12 12 9 8 7 5 6 6 6 6 5 7 7 4 5 5 7 3 4 3 5 4
8 3 6 18 12 5 7 3 3 11 15 20 16 20 19 18 16 18 20 20 20 18 17 16 15 15 16 12 13 14 12 9 8 8 7 7 6 5 6 6 6 6 4 5 4 3 3 5 5
4 0 5 11 6 12 7 4 2 17 14 16 14 19 19 19 20 17 21 21 19 18 18 17 15 14 14 13 10 12 11 8 8 7 7 7 7 6 7 6 5 5 4 3 3 2 2 3 4
1 10 3 3 3 5 13 4 5 13 22 26 22 23 20 20 18 19 22 19 19 18 17 17 17 16 15 12 11 11 8 7 6 8 9 9 9 9 8 6 6 6 5 3 3 4 2 2 3
8 13 6 7 6 3 4 9 3 15 19 25 28 25 21 18 18 18 17 17 18 20 20 18 18 17 16 14 12 11 10 7 9 11 10 7 8 7 9 8 7 7 5 5 5 5 4 3 1
15 17 7 7 7 6 4 7 3 4 15 21 23 25 23 21 19 19 20 22 21 22 20 19 18 17 16 14 13 10 8 8 9 10 8 10 9 8 8 9 9 8 8 6 7 7 6 5 4
17 14 17 15 8 6 8 3 6 8 11 15 22 21 21 21 18 17 21 20 23 23 22 20 18 17 16 15 13 11 10 10 6 3 6 9 8 7 8 9 10 10 9 8 7 8 7 5 5
14 14 16 10 9 11 7 7 6 12 13 17 17 24 24 20 18 13 16 18 20 20 19 21 19 18 17 15 14 12 10 9 8 5 6 5 8 8 8 9 10 9 9 9 9 8 8 8 8
13 12 15 15 14 11 9 7 4 8 11 15 16 19 22 21 16 12 13 16 15 18 17 17 17 17 17 17 15 13 11 9 8 7 7 4 6 9 9 8 8 9 9 9 8 9 8 9 7
15 21 17 12 16 9 13 3 3 5 8 8 10 14 17 20 20 13 15 17 14 14 16 16 14 14 14 14 16 15 15 12 11 9 8 6 7 7 8 6 9 8 9 10 9 9 8 9 8
Wind_Direction
170 175 223 243 245 231 113 86 112 120 129 124 117 127 69 17 9 76 137 137 137 138 141 135 135 125 121 110 108 103 99 96 97 92 94 99 98 97 97 98 100 99 98 98 99 95 95 92 89
180 161 256 273 228 133 91 116 129 135 122 131 125 124 86 71 78 121 127 140 140 137 139 136 136 122 120 115 108 100 99 99 97 95 94 100 105 103 104 102 106 104 102 99 96 90 90 87 89
179 218 271 296 155 85 113 128 129 123 137 132 114 49 41 80 125 112 131 139 136 134 135 136 126 118 114 108 115 108 105 107 104 101 99 99 112 109 110 107 109 102 99 102 98 91 84 90 83
206 211 227 200 71 42 119 139 133 136 132 106 121 93 93 125 111 129 137 139 133 136 125 134 119 117 112 114 106 118 98 98 112 105 102 104 114 105 110 108 109 100 91 89 92 87 85 89 85
234 256 134 79 82 85 115 139 143 147 124 131 127 106 114 101 122 130 136 140 133 126 127 124 123 117 106 105 107 106 109 115 113 105 107 104 104 99 109 99 95 90 85 84 96 89 93 83 80
256 316 147 121 101 117 120 144 150 150 126 105 108 121 99 131 136 135 137 133 127 127 128 122 112 108 108 106 109 113 115 115 111 112 109 103 105 114 110 107 100 92 88 87 96 93 89 78 80
116 124 181 149 155 144 120 136 160 143 149 153 134 122 116 154 137 138 137 128 132 127 120 129 119 111 105 104 107 110 114 110 111 112 110 103 100 108 112 112 102 97 96 89 87 90 90 80 78
226 214 183 170 172 151 120 135 122 166 116 122 129 149 152 141 146 138 135 133 123 128 117 122 99 116 112 104 106 108 110 105 107 108 112 111 108 108 111 108 106 106 100 88 84 82 87 77 75
226 191 215 161 164 138 135 138 125 130 147 146 118 139 143 145 145 142 139 136 140 131 131 128 119 116 107 110 112 105 108 111 111 115 119 109 100 112 107 119 109 111 105 91 89 84 78 75 63
240 265 182 122 119 134 161 145 136 146 143 130 116 118 140 151 152 150 151 144 146 141 139 122 124 120 118 116 115 111 122 115 116 119 123 120 109 108 114 118 126 118 110 98 86 79 71 64 79
196 329 117 122 108 83 130 139 154 152 159 151 144 142 148 156 160 155 152 149 148 147 134 141 124 125 121 118 125 126 124 125 120 123 125 122 115 113 107 105 112 115 104 96 72 54 70 73 71
240 101 130 122 117 119 95 123 106 212 144 150 150 148 150 162 162 158 152 149 148 145 147 135 132 130 125 121 115 126 127 129 127 128 127 126 119 116 112 106 113 116 104 68 55 66 60 81 88
230 127 116 124 146 140 74 114 95 98 145 142 148 150 154 159 158 157 150 148 148 150 146 141 139 138 135 125 118 118 128 127 123 129 131 129 125 124 120 106 113 113 93 75 55 55 72 98 108
162 141 146 167 174 159 142 136 0 123 143 144 154 156 157 157 160 155 158 152 152 148 148 146 144 141 138 125 124 125 126 126 128 129 131 125 123 130 125 112 120 126 106 84 66 73 82 87 107
187 139 131 176 173 158 124 112 118 152 150 150 159 161 155 158 157 161 161 156 151 149 147 150 148 143 140 131 129 123 130 128 129 130 128 125 119 132 126 126 132 129 121 96 80 100 108 96 104
171 177 140 153 170 151 171 158 156 194 161 163 160 159 158 159 159 156 158 156 150 145 149 155 151 150 148 141 134 129 127 129 132 133 134 128 121 140 137 134 138 141 137 118 98 115 103 94 94
189 206 133 155 191 162 211 145 198 188 179 168 164 162 162 162 160 157 158 157 151 148 153 157 156 155 155 153 142 135 133 136 137 141 137 133 124 128 135 135 141 142 148 134 128 112 101 104 76
181 194 149 169 174 183 179 157 174 195 193 178 172 170 169 170 173 167 161 162 160 158 159 159 159 160 159 158 156 150 145 147 145 146 146 144 143 144 142 144 145 155 147 146 111 81 86 62 46
249 186 132 138 125 75 195 163 174 188 204 183 174 179 178 178 172 168 172 172 171 170 170 170 170 173 170 169 170 162 160 152 150 149 148 156 147 147 149 150 147 163 155 113 130 130 89 95 37
226 193 127 100 127 107 34 149 168 180 199 197 182 180 177 178 172 178 182 180 182 182 185 181 182 184 185 176 176 175 159 164 160 161 166 175 176 169 159 159 159 174 146 146 74 48 121 87 41
202 222 159 130 116 72 96 24 163 180 232 221 189 199 187 183 182 184 192 191 189 185 189 190 186 186 195 187 182 179 174 169 180 167 180 190 194 196 170 174 161 166 171 151 141 81 2 89 62
164 352 119 141 171 138 206 186 137 174 202 219 211 207 195 183 205 186 193 198 195 191 190 190 188 185 188 197 191 191 186 189 193 191 193 190 181 185 202 186 168 173 151 146 138 80 58 336 79
27 257 131 162 128 139 158 149 184 159 205 207 207 206 204 198 194 197 198 199 200 192 192 191 192 190 193 199 194 190 194 187 190 193 197 188 186 190 182 194 182 175 169 148 137 119 47 61 42
232 178 182 116 318 227 168 198 226 207 201 199 205 216 209 198 202 200 200 192 196 192 193 191 191 194 203 204 200 217 190 194 183 190 202 195 196 196 194 185 185 182 180 177 177 177 166 47 57
178 187 165 210 194 247 153 202 208 204 195 200 196 205 212 203 200 205 198 185 204 197 194 190 193 195 200 210 208 210 210 213 214 206 201 195 200 199 191 189 193 200 190 195 198 197 192 188 208
192 207 220 204 214 168 196 227 143 170 188 207 201 197 200 212 198 201 197 200 195 204 197 195 190 193 197 204 211 215 221 223 234 228 203 196 181 208 179 189 185 191 189 202 202 208 216 213 221
191 207 236 272 232 207 169 223 179 159 193 195 207 202 188 212 207 203 198 202 199 200 200 198 194 194 195 199 201 211 214 220 248 231 229 208 201 198 194 197 196 190 194 198 202 207 214 229 245
242 211 215 235 266 233 178 197 251 189 199 196 199 199 198 192 204 205 205 203 202 201 203 199 197 197 197 199 204 209 214 222 221 228 241 248 216 195 181 200 210 207 203 206 201 206 210 219 231
201 231 227 249 235 267 219 195 136 194 187 188 195 197 195 191 191 187 197 198 193 204 196 191 197 199 202 202 204 213 210 213 218 223 233 251 239 204 185 204 209 216 218 215 214 222 219 226 227
224 213 211 224 226 248 288 50 125 155 174 179 177 184 188 187 195 171 169 172 174 183 183 185 197 203 210 212 203 208 210 211 219 228 235 228 221 212 219 212 210 212 221 218 228 229 219 222 226